Find Starlink 35397

NORAD ID: 65825 Int'l Des: 2025-221 Owner: SPXS Country: US Constellation: starlink operational
LEOCIRCULAR

Aktuelle Ansicht

3D-Globus wird geladen...

Über Starlink 35397

Beschreibung wird geladen...

Nächste Überflüge

Passes for default location (London). Set your location on the main map for personalized predictions.

Höhenverlauf

Loading altitude history...

Zweizeiliger Elementsatz

1 65825U 25221C 26150.15085291 .00037524 00000-0 11153-2 0 9997
2 65825 53.1592 69.3847 0001118 108.9290 251.1834 15.34425114 38566
Epoch: 30. Mai 2026 • Age: 6 hours

Aktueller Status

Höhe 466.4 km
Geschwindigkeit 7.63 km/s
Subsatellitenpunkt -12.54°S, 23.64°E
Startdatum 29. Sept. 2025
Alter 0.6 years
Typ internet

Technische Details

Klassifizierung Payload
Masse 575.00 kg
Trockenmasse 530.00 kg
Gesamtmasse 575.00 kg
Länge 0.30 m
Durchmesser 4.10 m
Spannweite 29.00 m
Form Box + pan
Hersteller SPXS
Bus-Typ Starlink V2MO
Phasenstatus In Orbit
Besitzer/Staat SPXS/US

Most Searched